Mexico City Airport, Mexico

3:42 PM CST on February 06, 2016 (GMT -0600)
Mexico City Airport

Weather History for 76679 - September, 2013

Change the Weather History Date:

Friday, September 6, 2013

  Actual Average Record
Temperature  
Mean Temperature 66 °F -  
Max Temperature 73 °F 71 °F - ()
Min Temperature 59 °F 52 °F - ()
Cooling Degree Days 1    
Growing Degree Days 16 (Base 50)    
Moisture  
Dew Point 54 °F    
Average Humidity 75    
Maximum Humidity 88    
Minimum Humidity 36    
Precipitation  
Precipitation 3.25 in - - ()
Sea Level Pressure  
Sea Level Pressure 30.20 in    
Wind  
Wind Speed 4 mph ()    
Max Wind Speed 18 mph    
Max Gust Speed 26 mph    
Visibility 6.2 miles    
Events Rain , Thunderstorm    
T = Trace of Precipitation, MM = Missing Value Source: Averaged Metar Reports

Daily Weather History Graph

Daily Weather History Graph

Search for Another Location

Airport or City:

Trip Planner

Search our weather history database for the weather conditions in past years. The results will help you decide how hot, cold, wet, or windy it might be!

Date:

Astronomy

Sep. 06, 2013 Rise Set
Actual Time 7:22 AM CDT 7:46 PM CDT
Civil Twilight 7:00 AM CDT 8:08 PM CDT
Nautical Twilight 6:34 AM CDT 8:34 PM CDT
Astronomical Twilight 6:08 AM CDT 9:00 PM CDT
Moon 8:19 AM CDT 8:33 PM CDT
Length of Visible Light 13h 08m
Length of Day
12h 24m
New Moon, 2% of the Moon is Illuminated
Sep 6
New Moon
Sep 12
First Quarter
Sep 19
Full
Sep 26
Last Quarter
Oct 4
New

Hourly Weather History & Observations

Time (CDT) Temp. Dew Point Humidity Pressure Visibility Wind Dir Wind Speed Gust Speed Precip Events Conditions
12:46 AM 59.0 °F 55.4 °F 88% 29.87 in 15.0 mi West 4.6 mph - N/A   Overcast
1:51 AM 59.0 °F 53.6 °F 82% 30.33 in 15.0 mi West 4.6 mph - N/A   Mostly Cloudy
2:49 AM 59.0 °F 55.4 °F 88% 30.31 in 12.0 mi Calm Calm - N/A   Overcast
3:53 AM 59.0 °F 55.4 °F 88% 29.79 in 10.0 mi NE 6.9 mph - N/A   Overcast
4:49 AM 59.0 °F 55.4 °F 88% 30.30 in 5.0 mi NE 6.9 mph - N/A   Overcast
5:49 AM 59.0 °F 55.4 °F 88% 30.28 in 4.0 mi NNW 3.5 mph - N/A   Overcast
6:49 AM 59.0 °F 53.6 °F 82% 29.84 in 4.0 mi North 3.5 mph - N/A   Overcast
7:23 AM 59.0 °F 53.6 °F 82% 30.30 in 5.0 mi NW 4.6 mph - N/A   Mostly Cloudy
7:45 AM 59.0 °F 53.6 °F 82% 30.30 in 6.0 mi West 4.6 mph - N/A   Mostly Cloudy
8:24 AM 59.0 °F 53.6 °F 82% 30.32 in 7.0 mi Calm Calm - N/A   Mostly Cloudy
8:49 AM 60.8 °F 53.6 °F 77% 30.32 in 7.0 mi Calm Calm - N/A   Mostly Cloudy
9:24 AM 60.8 °F 53.6 °F 77% 30.33 in 7.0 mi Calm Calm - N/A   Overcast
9:49 AM 60.8 °F 53.6 °F 77% 29.91 in 7.0 mi Calm Calm - N/A   Overcast
10:25 AM 64.4 °F 55.4 °F 73% 30.34 in 7.0 mi SSE 3.5 mph - N/A   Mostly Cloudy
10:27 AM 64.4 °F 55.4 °F 73% 30.34 in 7.0 mi South 4.6 mph - N/A   Mostly Cloudy
10:46 AM 62.6 °F 53.6 °F 72% 30.33 in 8.0 mi SSE 4.6 mph - N/A   Mostly Cloudy
11:46 AM 66.2 °F 53.6 °F 64% 30.32 in 7.0 mi SSE 5.8 mph - N/A   Mostly Cloudy
11:49 AM 66.2 °F 53.6 °F 64% 30.32 in 7.0 mi South 4.6 mph - N/A   Mostly Cloudy
12:23 PM 69.8 °F 53.6 °F 56% 30.31 in 6.0 mi SSE 6.9 mph - N/A   Scattered Clouds
12:47 PM 69.8 °F 53.6 °F 56% 29.80 in 7.0 mi Calm Calm - N/A   Mostly Cloudy
1:50 PM 71.6 °F 51.8 °F 50% 30.25 in 7.0 mi North 4.6 mph - N/A   Mostly Cloudy
2:43 PM 73.4 °F 51.8 °F 47% 30.22 in 5.0 mi ESE 4.6 mph - N/A   Mostly Cloudy
3:35 PM 71.6 °F 50.0 °F 46% 30.20 in 6.0 mi West 13.8 mph - N/A   Overcast
3:56 PM 66.2 °F 51.8 °F 60% 30.20 in 6.0 mi West 18.4 mph - N/A Thunderstorm Overcast
4:14 PM 62.6 °F 51.8 °F 68% - 6.0 mi West 15.0 mph 26.5 mph N/A Thunderstorm Overcast
4:28 PM 62.6 °F - N/A% 30.20 in 5.0 mi NW 12.7 mph - N/A Rain , Thunderstorm Light Thunderstorms and Rain
4:48 PM 60.8 °F 55.4 °F 82% 30.22 in 5.0 mi WNW 8.1 mph 19.6 mph N/A Rain Light Rain
5:17 PM 60.8 °F 53.6 °F 77% 30.23 in 4.0 mi North 5.8 mph - N/A Rain Rain
5:26 PM 60.8 °F 33.8 °F 36% 30.24 in 4.0 mi North 4.6 mph - N/A Rain , Thunderstorm Thunderstorms and Rain
5:44 PM 59.0 °F 55.4 °F 88% 30.23 in 3.0 mi North 6.9 mph - N/A Rain , Thunderstorm Thunderstorms and Rain
6:08 PM 60.8 °F - N/A% 30.23 in 4.0 mi Calm Calm - N/A Rain , Thunderstorm Light Thunderstorms and Rain
6:19 PM 60.8 °F 55.4 °F 82% 30.24 in 4.0 mi Calm Calm - N/A Rain Light Rain
6:47 PM 60.8 °F 55.4 °F 82% 29.80 in 4.0 mi East 4.6 mph - N/A Rain Light Rain
7:45 PM 59.0 °F 55.4 °F 88% 30.26 in 5.0 mi ESE 4.6 mph - N/A Rain Light Rain
8:43 PM 59.0 °F 55.4 °F 88% 30.27 in 5.0 mi South 6.9 mph - N/A Rain Light Rain
9:49 PM 59.0 °F 55.4 °F 88% 29.84 in 2.5 mi South 5.8 mph - N/A Rain Rain
10:37 PM 59.0 °F 55.4 °F 88% 30.29 in 4.0 mi South 3.5 mph - N/A Rain Light Rain
10:46 PM 59.0 °F 55.4 °F 88% 30.29 in 5.0 mi South 4.6 mph - N/A Rain Light Rain
11:45 PM 59.0 °F 53.6 °F 82% 30.30 in 5.0 mi Calm Calm - N/A Rain Light Rain